238  
NZUS99 KSGF 241157  
HRRSGF  
 
HOURLY WEATHER  
NATIONAL WEATHER SERVICE SPRINGFIELD MO  
700 AM CDT FRI MAY 24 2019  
   
.....SGF CWA...
 
 
 
CITY SKY/WX TMP DP RH WIND PRES REMARKS  
SPRINGFIELD SUNNY 71 66 84 S10 30.06R  
6HR MIN TEMP: 69; 6HR MAX TEMP: 72;  
 
JOPLIN MOCLDY 72 68 87 S12 30.03R  
6HR MIN TEMP: 69; 6HR MAX TEMP: 72;  
 
WEST PLAINS SUNNY 72 66 81 S7 30.12R  
6HR MIN TEMP: 68; 6HR MAX TEMP: 74;  
 
ROLLA SUNNY 70 66 87 S9 30.08R  
6HR MIN TEMP: 69; 6HR MAX TEMP: 71;  
 
BRANSON SUNNY 68 68 100 SE7 30.10R  
   
.....SURROUNDING SGF CWA...
 
 
 
CITY SKY/WX TMP DP RH WIND PRES REMARKS  
CHANUTE CLOUDY 74 68 81 S14 29.98R  
PARSONS PTCLDY 73 69 87 S8 30.00R  
COFFEYVILLE PTCLDY 73 69 87 S14 29.97R  
EMPORIA LGT RAIN 67 62 84 SW16G32 29.96R  
HARRISON AR SUNNY 69 67 93 S3 30.11R  
   
.....KANSAS AND MISSOURI...
 
 
 
CITY SKY/WX TMP DP RH WIND PRES REMARKS  
KANSAS CTY INT LGT RAIN 74 68 81 S16G25 29.93R  
SEDALIA MOSUNNY 70 69 97 S14 30.01S  
ST JOSEPH LGT RAIN 65 63 93 NE5 29.95S FOG  
ST LOUIS PTSUNNY 73 67 81 S7 30.06R  
WICHITA TSTM 65 62 90 SE13 29.91F  
TOPEKA CLOUDY 74 66 76 S17G26 29.93R  
OLATHE CLOUDY 72 67 84 S14G23 29.95R  
   
.....TENNESSEE...
 
 
 
CITY SKY/WX TMP DP RH WIND PRES REMARKS  
MEMPHIS NOT AVBL  
NASHVILLE FAIR 71 64 78 CALM 30.17R  
   
.....ARKANSAS....
 
 
 
CITY SKY/WX TMP DP RH WIND PRES REMARKS  
FAYETTEVILLE PTCLDY 68 66 93 CALM 30.09R  
FT SMITH PTCLDY 75 66 73 S7 30.07R  
LITTLE ROCK MOSUNNY 72 67 84 CALM 30.10R  
   
.....OKLAHOMA....
 
 
 
CITY SKY/WX TMP DP RH WIND PRES REMARKS  
TULSA PTCLDY 74 70 87 S10 29.98R  
PONCA CITY CLOUDY 66 63 90 CALM 29.97R  
MCALESTER PTCLDY 73 69 87 S5 30.04R  
OKLAHOMA CITY MOCLDY 72 71 97 S12 29.96S  
   
.....IOWA.........
 
 
 
CITY SKY/WX TMP DP RH WIND PRES REMARKS  
DES MOINES NOT AVBL  
QUAD CITIES CLOUDY 60 55 83 E17 30.03F  
   
.....ILLINOIS.....
 
 
 
CITY SKY/WX TMP DP RH WIND PRES REMARKS  
QUINCY NOT AVBL  
CHICAGO TSTM 54 52 93 VRB5 30.20R  
 
 
 
CLICK HERE TO GO TO PREVIOUS BULLETINS.

The Nexlab MO Page
The Nexlab KS Page Main Text Page